SCP
-0 0 -0 -0 0 0 0 -0 -0 -0 -1 -0 -0 -0 -0 -0 -0 -0 -0 -0 0 -0 -0 0 1 0 1 1 1 1 1 1 1
-0 -0 -0 -0 -0 -0 -0 0 -0 -0 -1 -0 -0 -0 -0 -0 -0 -0 -0 -0 -0 0 -0 0 1 1 1 1 0 0 1 1 0
-0 -0 0 -0 -0 -0 -0 -0 -0 -0 -1 -0 -0 -0 -1 -0 -0 -0 0 0 0 0 -0 0 1 1 1 0 0 -0 0 1 1
-0 -0 -0 -0 -0 0 0 0 0 -0 -0 -0 -0 -0 -1 -0 -0 -0 0 0 0 0 -0 0 1 1 1 1 1 1 1 2 1
-0 0 -0 -0 -0 0 0 0 0 1 0 0 0 -0 -1 0 0 0 0 0 0 1 1 1 2 1 1 1 1 1 1 1 1
0 0 0 -0 0 -0 -0 0 1 0 0 -0 0 0 0 0 0 0 0 0 0 0 2 2 2 1 1 1 1 1 1 1 0
0 -0 -0 -0 -0 -0 0 0 1 2 1 1 1 0 0 0 0 0 0 0 0 1 3 2 1 1 1 1 1 1 0 0 0
-0 -0 -0 -0 -0 -0 -0 0 1 1 1 0 0 1 1 1 1 0 1 1 2 1 2 0 2 2 1 0 0 0 0 0 0
-0 -0 -0 0 0 -0 -0 -0 0 0 -0 1 1 1 1 1 1 1 2 1 0 1 1 1 1 0 0 0 0 0 0 0 0
0 0 -0 -0 -0 -0 -0 -0 -0 -0 0 0 1 1 1 1 1 1 1 1 1 1 1 0 -0 0 0 0 0 0 -0 -0 0
0 0 0 -0 -0 -0 -0 -0 -0 -0 -0 0 1 1 0 0 0 0 0 0 0 0 0 -0 -0 0 -0 0 0 -0 -0 -0 -0
-0 -0 -0 0 -0 -0 -0 -0 -1 -0 0 0 0 0 0 1 0 0 -0 -0 -0 -0 -1 -0 -0 -0 -0 0 0 -0 -0 -0 0
-0 -0 -0 -0 -0 -0 -0 -0 -0 -0 0 0 -0 -0 -0 -0 -0 -1 -1 -1 -1 -0 -0 -0 -0 -0 0 0 0 -0 -0 -0 0
0 -0 -0 -0 -0 -0 -0 -0 -0 -0 0 -0 -0 -0 -0 -0 -0 -1 -0 -0 -0 -0 -0 -0 -0 -0 0 0 -0 0 -0 -0 0
-0 -0 -0 -0 0 -0 -0 -0 -0 -0 -0 -0 -0 -0 -0 -0 -0 -0 -0 -0 -0 -0 -0 -0 -0 0 0 0 0 0 0 0 0
0 -0 0 0 0 0 -0 -0 -0 -0 -0 -0 -0 -0 -0 -0 -0 -0 -0 0 0 0 0 -0 -0 -0 0 -0 0 0 0 0 -0
1 0 0 0 0 0 0 0 -0 -0 -0 -0 -0 -0 -0 -0 -0 0 0 0 0 -0 -0 0 0 0 0 0 0 0 0 0 0
0 0 0 0 0 1 0 1 0 0 0 -0 -0 -0 -0 -0 0 0 0 -0 0 -0 -0 0 0 0 0 0 0 0 0 0 0
1 0 1 1 1 0 1 1 0 0 0 0 0 0 -0 0 -0 0 0 -0 0 -0 -0 -0 -0 0 0 0 0 0 0 0 0
1 1 0 0 -0 0 1 1 1 1 0 0 0 -0 -0 -0 0 -0 0 -0 -0 -0 0 0 0 0 0 0 0 0 0 0 0
Wind_Speed_500mb
48 46 47 47 44 39 35 42 41 35 31 26 25 22 20 23 26 27 29 25 22 17 17 11 13 16 22 22 23 22 15 17 20
48 46 48 51 47 46 49 43 38 38 42 27 27 27 28 29 30 28 23 18 23 24 23 18 25 24 25 21 19 23 26 24 23
50 46 45 53 52 49 49 43 42 40 41 34 33 32 31 33 32 31 31 31 33 22 21 19 28 30 26 15 22 27 27 23 23
45 49 43 49 48 49 49 46 50 52 54 48 40 38 41 32 35 34 35 34 27 26 26 30 32 31 25 22 21 22 26 31 24
6 21 53 47 54 31 46 49 52 50 39 13 39 32 37 36 32 32 31 32 27 24 23 21 22 29 25 21 24 17 31 26 23
5 9 27 32 43 54 28 39 28 23 25 45 28 28 33 32 32 33 33 31 20 27 20 19 18 25 24 28 31 35 26 27 34
13 12 20 48 44 61 54 26 16 16 20 21 23 26 29 32 39 33 28 26 28 20 24 16 18 18 24 28 27 20 19 19 19
20 20 18 29 36 61 56 42 24 29 34 23 17 28 25 22 30 20 30 32 36 33 31 18 20 22 16 13 13 18 18 17 13
28 26 27 24 24 29 37 34 27 17 19 22 24 25 24 29 38 31 35 27 25 18 20 23 17 9 3 6 11 16 21 16 11
33 32 40 39 36 41 33 32 27 32 27 19 16 19 21 34 37 37 30 25 22 19 12 1 7 8 4 8 11 18 26 29 27
38 37 37 39 38 35 36 29 25 22 23 19 22 22 24 24 23 28 28 23 12 18 17 16 8 5 4 9 11 17 20 26 28
44 41 41 39 39 32 27 24 26 19 17 21 20 19 24 26 26 27 24 26 25 24 22 15 10 10 9 11 12 12 13 15 20
47 44 43 37 34 31 28 26 24 29 27 24 20 23 27 29 32 34 29 28 25 20 16 13 14 17 14 15 15 13 12 15 18
55 51 46 38 37 33 31 29 28 27 27 26 26 29 30 29 29 31 30 29 27 23 22 19 19 18 19 18 19 20 19 10 11
64 54 49 41 40 37 33 33 34 31 34 33 34 33 29 34 33 29 32 30 22 18 18 21 20 19 16 17 21 23 23 23 17
64 60 52 43 41 41 39 35 40 38 37 37 36 38 35 40 32 28 28 24 25 22 18 15 14 16 16 6 11 18 20 20 19
64 58 54 48 45 47 42 42 40 35 41 42 41 42 39 33 27 30 32 25 16 13 8 17 13 12 12 7 1 6 11 11 13
63 58 53 53 54 51 49 42 35 38 42 42 40 40 36 30 22 24 19 8 24 10 13 13 11 16 16 9 16 8 10 8 8
63 62 54 59 58 53 50 46 43 38 44 42 41 37 31 31 22 19 19 18 17 12 7 8 20 16 15 14 15 9 10 10 7
66 60 61 64 58 56 54 49 46 41 44 43 39 34 29 33 28 25 28 23 16 10 12 7 5 12 26 15 10 3 6 12 9
Wind_Direction_500mb
184 191 189 187 189 193 184 181 179 184 202 212 206 202 203 205 209 213 215 223 215 228 255 269 227 283 298 275 257 271 269 264 273
180 190 191 187 187 194 184 193 188 191 199 202 203 202 202 206 207 211 210 220 253 236 243 246 289 281 287 295 279 281 273 277 274
176 188 198 182 191 190 188 192 188 193 191 193 201 209 221 213 214 213 209 207 224 229 228 258 260 280 293 300 334 293 295 291 280
174 181 194 190 187 190 187 190 191 193 193 196 195 201 231 236 230 220 218 219 230 235 235 236 257 280 282 275 283 294 291 289 284
139 188 184 200 179 185 184 191 197 196 164 104 186 207 225 236 246 236 231 225 232 246 256 259 268 279 286 289 255 296 316 296 280
131 246 197 176 149 158 347 191 161 176 141 202 190 211 222 222 239 230 216 230 239 249 261 272 267 274 284 289 305 309 314 297 298
125 124 93 136 143 166 196 163 175 168 149 171 200 210 218 214 221 222 221 217 226 222 234 245 258 281 300 309 316 331 330 320 319
137 141 160 136 143 171 189 175 218 221 222 238 219 233 218 226 219 214 211 215 199 216 231 243 270 306 310 347 322 342 326 332 331
150 154 157 175 180 176 192 187 194 208 195 211 214 227 207 216 199 208 212 211 216 228 248 248 288 309 18 311 10 3 4 9 6
164 170 159 166 168 169 185 200 218 212 201 216 212 236 211 210 208 205 199 204 213 231 229 145 67 67 319 29 43 37 47 49 53
172 171 162 165 173 183 189 185 186 207 196 206 209 201 197 213 199 200 210 214 182 140 126 120 156 200 82 92 67 55 56 50 52
172 171 168 172 169 168 169 178 180 180 184 209 202 191 195 187 188 170 159 147 140 141 148 160 172 125 107 91 66 65 95 77 35
171 171 169 169 155 158 164 168 168 178 173 171 168 184 168 153 149 150 152 150 146 138 128 123 133 119 93 83 77 89 128 97 91
169 171 168 153 155 160 163 162 167 169 165 169 174 158 153 153 148 147 147 138 124 127 146 157 129 103 95 80 76 73 76 109 129
165 167 157 159 159 157 158 163 157 163 160 159 154 155 155 144 137 137 137 130 139 140 150 136 117 105 74 74 71 66 65 65 78
160 155 156 166 160 156 159 160 164 167 162 161 152 144 143 132 144 153 137 134 119 119 123 116 111 109 155 7 32 32 38 36 34
150 156 164 166 160 157 154 166 175 171 159 153 152 143 138 149 161 146 134 120 122 151 174 179 145 160 172 138 61 8 352 13 10
155 161 170 162 162 162 158 167 173 164 158 154 155 151 151 149 156 155 167 181 126 148 170 176 152 176 193 174 196 255 327 292 298
159 164 168 164 169 167 166 168 165 170 162 165 162 149 150 158 168 170 173 184 202 218 132 191 220 209 211 217 246 308 337 354 2
162 166 168 172 174 172 167 169 175 174 169 170 162 161 171 179 185 187 183 193 197 181 185 149 172 213 220 227 215 286 26 28 22
Wind_Speed_850mb
48 46 47 47 44 39 35 42 41 35 31 26 25 22 20 23 26 27 29 25 22 17 17 11 13 16 22 22 23 22 15 17 20
48 46 48 51 47 46 49 43 38 38 42 27 27 27 28 29 30 28 23 18 23 24 23 18 25 24 25 21 19 23 26 24 23
50 46 45 53 52 49 49 43 42 40 41 34 33 32 31 33 32 31 31 31 33 22 21 19 28 30 26 15 22 27 27 23 23
45 49 43 49 48 49 49 46 50 52 54 48 40 38 41 32 35 34 35 34 27 26 26 30 32 31 25 22 21 22 26 31 24
6 21 53 47 54 31 46 49 52 50 39 13 39 32 37 36 32 32 31 32 27 24 23 21 22 29 25 21 24 17 31 26 23
5 9 27 32 43 54 28 39 28 23 25 45 28 28 33 32 32 33 33 31 20 27 20 19 18 25 24 28 31 35 26 27 34
13 12 20 48 44 61 54 26 16 16 20 21 23 26 29 32 39 33 28 26 28 20 24 16 18 18 24 28 27 20 19 19 19
20 20 18 29 36 61 56 42 24 29 34 23 17 28 25 22 30 20 30 32 36 33 31 18 20 22 16 13 13 18 18 17 13
28 26 27 24 24 29 37 34 27 17 19 22 24 25 24 29 38 31 35 27 25 18 20 23 17 9 3 6 11 16 21 16 11
33 32 40 39 36 41 33 32 27 32 27 19 16 19 21 34 37 37 30 25 22 19 12 1 7 8 4 8 11 18 26 29 27
38 37 37 39 38 35 36 29 25 22 23 19 22 22 24 24 23 28 28 23 12 18 17 16 8 5 4 9 11 17 20 26 28
44 41 41 39 39 32 27 24 26 19 17 21 20 19 24 26 26 27 24 26 25 24 22 15 10 10 9 11 12 12 13 15 20
47 44 43 37 34 31 28 26 24 29 27 24 20 23 27 29 32 34 29 28 25 20 16 13 14 17 14 15 15 13 12 15 18
55 51 46 38 37 33 31 29 28 27 27 26 26 29 30 29 29 31 30 29 27 23 22 19 19 18 19 18 19 20 19 10 11
64 54 49 41 40 37 33 33 34 31 34 33 34 33 29 34 33 29 32 30 22 18 18 21 20 19 16 17 21 23 23 23 17
64 60 52 43 41 41 39 35 40 38 37 37 36 38 35 40 32 28 28 24 25 22 18 15 14 16 16 6 11 18 20 20 19
64 58 54 48 45 47 42 42 40 35 41 42 41 42 39 33 27 30 32 25 16 13 8 17 13 12 12 7 1 6 11 11 13
63 58 53 53 54 51 49 42 35 38 42 42 40 40 36 30 22 24 19 8 24 10 13 13 11 16 16 9 16 8 10 8 8
63 62 54 59 58 53 50 46 43 38 44 42 41 37 31 31 22 19 19 18 17 12 7 8 20 16 15 14 15 9 10 10 7
66 60 61 64 58 56 54 49 46 41 44 43 39 34 29 33 28 25 28 23 16 10 12 7 5 12 26 15 10 3 6 12 9
Wind_Direction_850mb
184 191 189 187 189 193 184 181 179 184 202 212 206 202 203 205 209 213 215 223 215 228 255 269 227 283 298 275 257 271 269 264 273
180 190 191 187 187 194 184 193 188 191 199 202 203 202 202 206 207 211 210 220 253 236 243 246 289 281 287 295 279 281 273 277 274
176 188 198 182 191 190 188 192 188 193 191 193 201 209 221 213 214 213 209 207 224 229 228 258 260 280 293 300 334 293 295 291 280
174 181 194 190 187 190 187 190 191 193 193 196 195 201 231 236 230 220 218 219 230 235 235 236 257 280 282 275 283 294 291 289 284
139 188 184 200 179 185 184 191 197 196 164 104 186 207 225 236 246 236 231 225 232 246 256 259 268 279 286 289 255 296 316 296 280
131 246 197 176 149 158 347 191 161 176 141 202 190 211 222 222 239 230 216 230 239 249 261 272 267 274 284 289 305 309 314 297 298
125 124 93 136 143 166 196 163 175 168 149 171 200 210 218 214 221 222 221 217 226 222 234 245 258 281 300 309 316 331 330 320 319
137 141 160 136 143 171 189 175 218 221 222 238 219 233 218 226 219 214 211 215 199 216 231 243 270 306 310 347 322 342 326 332 331
150 154 157 175 180 176 192 187 194 208 195 211 214 227 207 216 199 208 212 211 216 228 248 248 288 309 18 311 10 3 4 9 6
164 170 159 166 168 169 185 200 218 212 201 216 212 236 211 210 208 205 199 204 213 231 229 145 67 67 319 29 43 37 47 49 53
172 171 162 165 173 183 189 185 186 207 196 206 209 201 197 213 199 200 210 214 182 140 126 120 156 200 82 92 67 55 56 50 52
172 171 168 172 169 168 169 178 180 180 184 209 202 191 195 187 188 170 159 147 140 141 148 160 172 125 107 91 66 65 95 77 35
171 171 169 169 155 158 164 168 168 178 173 171 168 184 168 153 149 150 152 150 146 138 128 123 133 119 93 83 77 89 128 97 91
169 171 168 153 155 160 163 162 167 169 165 169 174 158 153 153 148 147 147 138 124 127 146 157 129 103 95 80 76 73 76 109 129
165 167 157 159 159 157 158 163 157 163 160 159 154 155 155 144 137 137 137 130 139 140 150 136 117 105 74 74 71 66 65 65 78
160 155 156 166 160 156 159 160 164 167 162 161 152 144 143 132 144 153 137 134 119 119 123 116 111 109 155 7 32 32 38 36 34
150 156 164 166 160 157 154 166 175 171 159 153 152 143 138 149 161 146 134 120 122 151 174 179 145 160 172 138 61 8 352 13 10
155 161 170 162 162 162 158 167 173 164 158 154 155 151 151 149 156 155 167 181 126 148 170 176 152 176 193 174 196 255 327 292 298
159 164 168 164 169 167 166 168 165 170 162 165 162 149 150 158 168 170 173 184 202 218 132 191 220 209 211 217 246 308 337 354 2
162 166 168 172 174 172 167 169 175 174 169 170 162 161 171 179 185 187 183 193 197 181 185 149 172 213 220 227 215 286 26 28 22